DW9882 Weather Reports


time (UTC)temp
F
wind
direction
speed
knots
gust
knots
rain 1hr
in
rain 24hr
in
rain mn
in
humidity
%
barometer
mb
20260509031203 61 34 0.0 0.0 0.00 0.00 0.02 51 1016.0
20260509030704 61 34 0.0 0.0 0.00 0.00 0.02 50 1015.9
20260509030204 61 34 0.0 0.0 0.00 0.00 0.02 49 1015.8
20260509025703 62 34 0.0 0.0 0.00 0.00 0.02 48 1015.7
20260509025204 62 34 0.0 0.0 0.00 0.00 0.02 47 1015.7
20260509024703 63 34 0.0 0.0 0.00 0.00 0.02 47 1015.6
20260509024203 63 34 0.0 0.0 0.00 0.00 0.02 46 1015.6
20260509023704 63 34 0.0 0.0 0.00 0.00 0.02 45 1015.7
20260509022703 64 34 0.0 0.0 0.00 0.00 0.02 45 1015.5
20260509022203 64 34 0.0 0.0 0.00 0.00 0.02 43 1015.5
20260509021703 64 34 0.0 0.0 0.00 0.00 0.02 43 1015.5
20260509021203 65 34 0.0 0.0 0.00 0.00 0.02 42 1015.4
20260509020703 65 34 0.0 0.0 0.00 0.00 0.02 42 1015.3
20260509020203 65 34 0.0 0.0 0.00 0.00 0.02 41 1015.3
20260509015703 65 34 0.0 0.0 0.00 0.00 0.02 41 1015.3
20260509015203 66 34 0.0 0.9 0.00 0.00 0.02 41 1015.2
20260509014703 66 34 0.0 0.0 0.00 0.00 0.02 40 1015.2
20260509014204 66 34 0.0 1.7 0.00 0.00 0.02 40 1015.2
20260509013703 66 104 0.0 1.7 0.00 0.00 0.02 40 1015.1
20260509013203 67 14 0.0 0.0 0.00 0.00 0.02 40 1015.1
20260509012703 67 14 0.0 0.0 0.00 0.00 0.02 40 1015.1
20260509012204 67 14 0.0 1.7 0.00 0.00 0.02 38 1015.1
20260509011203 68 14 0.0 0.9 0.00 0.00 0.02 38 1015.1
20260509010703 68 14 1.7 2.6 0.00 0.00 0.02 38 1015.0
20260509010203 69 38 0.9 1.7 0.00 0.00 0.02 37 1015.0
20260509005702 69 38 0.9 2.6 0.00 0.00 0.02 38 1014.9
20260509005203 69 46 0.9 2.6 0.00 0.00 0.02 37 1015.0
20260509004703 69 53 0.9 2.6 0.00 0.00 0.02 37 1015.0
20260509004203 69 98 0.9 2.6 0.00 0.00 0.02 36 1015.0
20260509003703 70 88 0.9 2.6 0.00 0.00 0.02 38 1015.0
20260509002704 70 101 1.7 2.6 0.00 0.00 0.02 35 1015.0
20260509002203 70 58 0.0 1.7 0.00 0.00 0.02 35 1015.0
20260509001703 70 44 0.9 4.3 0.00 0.00 0.02 34 1014.9
20260509000704 71 104 0.9 2.6 0.00 0.00 0.02 35 1015.0
20260509000204 71 45 0.9 2.6 0.00 0.00 0.02 36 1015.0
20260508235703 71 101 0.0 2.6 0.00 0.00 0.02 35 1015.0
20260508235203 71 114 0.9 2.6 0.00 0.00 0.02 35 1015.1
20260508234703 71 45 0.9 2.6 0.00 0.00 0.02 35 1015.1
20260508233703 71 144 0.9 5.2 0.00 0.00 0.02 35 1015.0
20260508233203 71 191 0.9 4.3 0.00 0.00 0.02 35 1015.1
20260508232703 72 171 0.9 6.1 0.00 0.00 0.02 34 1015.1
20260508232203 72 174 0.9 5.2 0.00 0.00 0.02 37 1015.1
20260508231703 71 70 0.9 2.6 0.00 0.00 0.02 34 1015.1
20260508231203 72 23 0.9 2.6 0.00 0.00 0.02 33 1015.1
20260508230203 72 104 0.9 2.6 0.00 0.00 0.02 35 1015.1
20260508225703 72 79 0.9 2.6 0.00 0.00 0.02 33 1015.2
20260508225203 72 49 0.9 2.6 0.00 0.00 0.02 37 1015.2
20260508224703 71 5 2.6 5.2 0.00 0.01 0.02 34 1015.2
20260508224203 71 138 0.9 1.7 0.00 0.01 0.02 36 1015.2
20260508223702 71 121 0.0 4.3 0.00 0.01 0.02 35 1015.3
20260508223203 71 56 2.6 4.3 0.00 0.01 0.02 35 1015.4
20260508222703 70 117 2.6 7.0 0.00 0.01 0.02 36 1015.3
20260508222203 71 73 1.7 2.6 0.00 0.01 0.02 34 1015.3
20260508221703 71 82 0.0 2.6 0.00 0.01 0.02 36 1015.3
20260508221203 71 83 2.6 4.3 0.00 0.01 0.02 34 1015.4
20260508220702 70 145 0.9 2.6 0.00 0.01 0.02 37 1015.4
20260508220203 70 77 2.6 7.8 0.00 0.01 0.02 36 1015.5
20260508215703 70 52 1.7 6.1 0.00 0.01 0.02 36 1015.5
20260508215204 71 57 0.9 2.6 0.00 0.01 0.02 34 1015.5
20260508214703 70 65 1.7 2.6 0.00 0.01 0.02 35 1015.6
20260508214203 70 52 1.7 2.6 0.00 0.01 0.02 35 1015.6
20260508213703 70 59 1.7 4.3 0.00 0.01 0.02 36 1015.7
20260508212702 69 8 1.7 5.2 0.00 0.01 0.02 37 1015.7
20260508212203 69 350 1.7 6.1 0.00 0.01 0.02 36 1015.8
20260508211203 69 37 0.9 7.0 0.00 0.01 0.02 37 1015.8
20260508210202 69 63 0.9 5.2 0.00 0.01 0.02 37 1016.0
20260508205203 69 140 0.0 1.7 0.00 0.02 0.02 37 1016.1
20260508204703 69 84 0.9 4.3 0.00 0.02 0.02 37 1016.1
20260508204202 69 20 0.9 7.0 0.00 0.02 0.02 39 1016.2
20260508202703 68 47 1.7 5.2 0.00 0.02 0.02 40 1016.3
20260508202203 67 20 1.7 4.3 0.00 0.02 0.02 40 1016.4
20260508201703 67 107 1.7 5.2 0.00 0.02 0.02 42 1016.5
20260508200703 67 300 0.9 4.3 0.00 0.02 0.02 41 1016.6
20260508200202 67 69 1.7 4.3 0.00 0.02 0.02 40 1016.6
20260508195702 67 81 2.6 7.0 0.00 0.02 0.02 41 1016.6
20260508195203 67 25 2.6 7.8 0.00 0.02 0.02 41 1016.7
20260508194703 67 107 0.9 2.6 0.00 0.02 0.02 42 1016.8
20260508194203 66 5 0.9 2.6 0.00 0.02 0.02 43 1016.8
20260508193703 66 18 1.7 4.3 0.00 0.02 0.02 42 1016.9
20260508193203 66 96 1.7 5.2 0.00 0.02 0.02 43 1017.0
20260508192203 65 5 2.6 5.2 0.00 0.02 0.02 42 1017.0
20260508191703 66 67 0.9 6.1 0.00 0.02 0.02 43 1017.0
20260508191203 65 32 0.9 4.3 0.00 0.02 0.02 47 1017.1
20260508190702 65 107 1.7 5.2 0.00 0.02 0.02 45 1017.1
20260508190203 64 82 1.7 5.2 0.00 0.02 0.02 44 1017.2
20260508185703 64 33 4.3 10.4 0.00 0.02 0.02 44 1017.2
20260508185202 65 51 2.6 7.0 0.00 0.02 0.02 45 1017.2
20260508184203 65 296 0.9 4.3 0.00 0.02 0.02 44 1017.3
20260508182703 65 97 2.6 6.1 0.00 0.02 0.02 43 1017.3
20260508182202 64 52 1.7 6.1 0.00 0.02 0.02 43 1017.3
20260508181702 64 37 2.6 6.1 0.00 0.02 0.02 43 1017.5
20260508181203 64 114 1.7 7.0 0.00 0.02 0.02 44 1017.5
20260508180703 64 89 0.9 2.6 0.00 0.02 0.02 45 1017.6
20260508175703 64 85 4.3 7.8 0.00 0.02 0.02 43 1017.5
20260508175202 64 114 2.6 5.2 0.00 0.02 0.02 43 1017.5
20260508174703 64 119 1.7 6.1 0.00 0.02 0.02 46 1017.5
20260508174202 63 141 0.9 2.6 0.00 0.02 0.02 46 1017.6
20260508173703 63 54 2.6 6.1 0.00 0.02 0.02 47 1017.6
20260508172702 63 92 1.7 6.1 0.00 0.02 0.02 46 1017.7
20260508172203 63 111 1.7 8.7 0.00 0.02 0.02 46 1017.7
20260508171703 63 60 1.7 7.0 0.00 0.02 0.02 47 1017.7
20260508171202 63 41 1.7 5.2 0.00 0.02 0.02 47 1017.7
20260508170703 63 113 1.7 6.1 0.00 0.02 0.02 48 1017.8
20260508170202 63 99 0.9 5.2 0.00 0.02 0.02 49 1017.8
20260508165703 62 108 1.7 4.3 0.00 0.02 0.02 49 1017.7
20260508165202 62 83 1.7 4.3 0.00 0.02 0.02 48 1017.8
20260508164703 62 94 0.9 5.2 0.00 0.02 0.02 48 1017.8
20260508163702 62 61 0.9 5.2 0.00 0.02 0.02 53 1017.6
20260508162702 61 134 1.7 6.1 0.00 0.02 0.02 51 1017.8
20260508162202 61 114 1.7 5.2 0.00 0.02 0.02 52 1017.8
20260508161702 61 155 2.6 6.1 0.00 0.02 0.02 51 1017.9
20260508161202 60 148 1.7 5.2 0.00 0.02 0.02 52 1017.8
20260508160202 60 83 2.6 5.2 0.00 0.02 0.02 53 1017.9
20260508155703 59 212 1.7 4.3 0.00 0.02 0.02 55 1017.9
20260508155202 59 160 1.7 4.3 0.00 0.02 0.02 55 1018.0
20260508154702 58 144 0.9 2.6 0.00 0.02 0.02 55 1018.0
20260508154203 58 199 1.7 7.0 0.00 0.02 0.02 55 1018.0
20260508153703 59 197 0.9 4.3 0.00 0.02 0.02 56 1017.9
20260508152702 58 162 1.7 6.1 0.00 0.02 0.02 62 1018.0
20260508151702 56 150 0.9 4.3 0.00 0.02 0.02 65 1018.0
20260508151202 56 181 1.7 4.3 0.00 0.02 0.02 66 1018.1
20260508150702 55 262 0.9 2.6 0.00 0.02 0.02 67 1018.1
20260508150202 54 109 0.9 1.7 0.00 0.02 0.02 69 1018.1
20260508145703 54 146 0.9 4.3 0.00 0.02 0.02 70 1018.1
20260508145202 53 150 0.9 5.2 0.00 0.02 0.02 71 1018.2
20260508053205 54 65 0.0 0.0 0.00 0.02 0.02 63 1016.8
20260508051204 55 68 0.0 0.0 0.00 0.02 0.02 59 1016.6
20260508050704 55 68 0.0 0.0 0.00 0.02 0.02 59 1016.5
20260508050203 55 68 0.0 0.0 0.00 0.02 0.02 58 1016.4
20260508045703 55 68 0.0 0.0 0.00 0.02 0.02 57 1016.5
20260508044704 55 68 0.0 0.0 0.00 0.02 0.02 57 1016.4
20260508044204 55 68 0.0 1.7 0.00 0.02 0.02 56 1016.5
20260508043704 55 68 0.0 1.7 0.00 0.02 0.02 57 1016.5
20260508043204 55 68 0.0 6.1 0.00 0.02 0.02 56 1016.6
20260508042704 55 101 0.9 7.8 0.00 0.02 0.02 56 1016.6
20260508042204 55 22 1.7 4.3 0.00 0.02 0.02 56 1016.8
20260508041704 55 355 0.0 0.0 0.00 0.02 0.02 56 1016.6
20260508041204 56 355 0.0 0.0 0.00 0.02 0.02 55 1016.4
20260508040704 56 355 0.0 0.0 0.00 0.02 0.02 55 1016.1
20260508040203 56 355 0.0 0.0 0.00 0.02 0.02 54 1016.0
20260508035703 56 355 0.0 0.0 0.00 0.02 0.02 54 1016.0
20260508035204 57 355 0.0 0.0 0.00 0.02 0.02 53 1016.0
20260508034704 57 355 0.0 0.0 0.00 0.02 0.02 53 1015.9
20260508034204 57 355 0.0 0.0 0.00 0.02 0.02 51 1015.8
20260508033703 57 355 0.0 0.0 0.00 0.02 0.02 51 1015.9
20260508033203 57 355 0.0 0.0 0.00 0.02 0.02 50 1015.8
20260508032704 58 355 0.0 0.0 0.00 0.02 0.02 49 1015.8
20260508032204 58 355 0.0 0.0 0.00 0.02 0.02 50 1015.9
20260508031703 58 355 0.0 0.9 0.00 0.02 0.02 48 1015.9